Location: ??????????
(31.2156°N, 29.9553°E)
Time: 04:34:04
(UTC+00:00)

Cosmos 1470 Rocket - Pass Details

Date: 03 March 2021
Orbit: 603 x 634 km, 82.5° (Epoch: 14 April)

Event Time Altitude Azimuth Distance (km) Brightness Sun altitude
Rises 16:53:39 0° 190° (S) 2,914 7.2 -12.3°
Reaches altitude 10° 16:55:54 10° 193° (SSW) 2,010 6.3 -12.8°
Maximum altitude 17:00:20 69° 276° (W) 678 3.9 -13.7°
Drops below altitude 10° 17:04:48 10° 1° (N) 2,014 6.2 -14.7°
Sets 17:07:03 0° 3° (N) 2,921 7.0 -15.1°
